TimeCST,TemperatureF,Dew PointF,Humidity,Sea Level PressureIn,VisibilityMPH,Wind Direction,Wind SpeedMPH,Gust SpeedMPH,PrecipitationIn,Events,Conditions,WindDirDegrees,DateUTC
12:14 AM,46.4,44.6,93,30.16,3.0,Calm,Calm,-,0.01,Rain,Light Rain,0,2013-01-09 06:14:00
12:46 AM,46.4,46.4,100,30.17,2.0,Calm,Calm,-,0.04,Rain,Rain,0,2013-01-09 06:46:00
12:53 AM,46.0,46.0,100,30.18,1.8,Calm,Calm,-,0.04,Rain,Light Rain,0,2013-01-09 06:53:00
1:05 AM,46.4,46.4,100,30.16,2.5,Calm,Calm,-,0.02,Rain,Light Rain,0,2013-01-09 07:05:00
1:36 AM,46.4,46.4,100,30.15,4.0,Calm,Calm,-,0.03,Rain,Light Rain,0,2013-01-09 07:36:00
1:53 AM,46.0,45.0,96,30.15,5.0,ESE,4.6,-,0.03,,Overcast,120,2013-01-09 07:53:00
2:20 AM,46.4,46.4,100,30.15,5.0,North,3.5,-,N/A,,Overcast,360,2013-01-09 08:20:00
2:29 AM,46.4,46.4,100,30.15,4.0,North,4.6,-,N/A,,Overcast,350,2013-01-09 08:29:00
2:53 AM,46.9,46.0,97,30.16,4.0,Calm,Calm,-,N/A,,Overcast,0,2013-01-09 08:53:00
3:10 AM,46.4,46.4,100,30.15,4.0,Calm,Calm,-,N/A,,Overcast,0,2013-01-09 09:10:00
3:24 AM,46.4,46.4,100,30.16,1.8,Calm,Calm,-,N/A,,Overcast,0,2013-01-09 09:24:00
3:42 AM,46.4,46.4,100,30.17,3.0,Calm,Calm,-,N/A,,Overcast,0,2013-01-09 09:42:00
3:53 AM,46.9,46.0,97,30.18,3.0,Calm,Calm,-,N/A,,Overcast,0,2013-01-09 09:53:00
4:11 AM,46.4,46.4,100,30.16,3.0,Calm,Calm,-,N/A,,Overcast,0,2013-01-09 10:11:00
4:18 AM,46.4,46.4,100,30.16,1.8,Calm,Calm,-,N/A,,Overcast,0,2013-01-09 10:18:00
4:27 AM,46.4,46.4,100,30.16,3.0,Calm,Calm,-,N/A,,Overcast,0,2013-01-09 10:27:00
4:36 AM,46.4,46.4,100,30.16,1.8,Calm,Calm,-,N/A,,Overcast,0,2013-01-09 10:36:00
4:53 AM,46.9,46.9,100,30.17,1.2,Calm,Calm,-,N/A,,Overcast,0,2013-01-09 10:53:00
5:30 AM,46.4,46.4,100,30.17,1.2,Calm,Calm,-,N/A,,Overcast,0,2013-01-09 11:30:00
5:53 AM,46.9,46.9,100,30.20,1.8,Calm,Calm,-,N/A,,Overcast,0,2013-01-09 11:53:00
6:53 AM,48.0,48.0,100,30.23,1.2,Calm,Calm,-,0.05,Rain,Light Rain,0,2013-01-09 12:53:00
7:39 AM,48.2,48.2,100,30.23,2.0,Calm,Calm,-,0.02,,Overcast,0,2013-01-09 13:39:00
7:53 AM,46.9,46.9,100,30.25,3.0,Calm,Calm,-,0.02,,Overcast,0,2013-01-09 13:53:00
8:01 AM,46.4,46.4,100,30.24,1.8,Calm,Calm,-,N/A,,Overcast,0,2013-01-09 14:01:00
8:21 AM,46.4,46.4,100,30.25,0.8,Calm,Calm,-,0.01,Rain,Light Rain,0,2013-01-09 14:21:00
8:30 AM,46.4,46.4,100,30.25,1.0,Calm,Calm,-,0.01,Rain,Light Rain,0,2013-01-09 14:30:00
8:53 AM,48.0,46.9,96,30.28,1.2,Calm,Calm,-,0.03,Rain,Light Rain,0,2013-01-09 14:53:00
9:22 AM,48.2,48.2,100,30.27,0.8,Calm,Calm,-,0.04,Rain,Light Rain,0,2013-01-09 15:22:00
9:29 AM,48.2,48.2,100,30.27,1.0,Calm,Calm,-,0.04,Rain,Light Rain,0,2013-01-09 15:29:00
9:53 AM,48.9,48.0,97,30.29,1.2,Calm,Calm,-,0.07,Rain,Light Rain,0,2013-01-09 15:53:00
10:32 AM,50.0,48.2,94,30.26,1.0,Calm,Calm,-,0.05,Rain,Rain,0,2013-01-09 16:32:00
10:53 AM,50.0,48.9,96,30.27,1.8,Calm,Calm,-,0.07,Rain,Light Rain,0,2013-01-09 16:53:00
11:06 AM,50.0,48.2,94,30.25,2.5,Calm,Calm,-,0.01,Rain,Light Rain,0,2013-01-09 17:06:00
11:15 AM,50.0,50.0,100,30.25,4.0,Calm,Calm,-,0.01,,Overcast,0,2013-01-09 17:15:00
11:53 AM,51.1,50.0,96,30.25,5.0,Calm,Calm,-,0.02,,Overcast,0,2013-01-09 17:53:00
12:53 PM,52.0,51.1,97,30.21,9.0,Calm,Calm,-,0.00,,Overcast,0,2013-01-09 18:53:00
1:53 PM,53.1,53.1,100,30.20,4.0,Calm,Calm,-,0.02,Rain,Light Rain,0,2013-01-09 19:53:00
2:53 PM,53.1,52.0,96,30.20,4.0,Variable,5.8,-,0.03,Rain,Light Rain,0,2013-01-09 20:53:00
3:17 PM,51.8,51.8,100,30.20,2.5,Variable,3.5,-,0.03,Rain,Rain,0,2013-01-09 21:17:00
3:30 PM,51.8,51.8,100,30.20,1.8,Variable,3.5,-,0.08,Rain,Rain,0,2013-01-09 21:30:00
3:53 PM,52.0,52.0,100,30.21,1.8,Calm,Calm,-,0.15,Rain,Rain,0,2013-01-09 21:53:00
4:01 PM,51.8,51.8,100,30.21,2.5,Calm,Calm,-,0.02,Rain,Rain,0,2013-01-09 22:01:00
4:40 PM,51.8,51.8,100,30.21,3.0,East,3.5,-,0.10,Rain,Light Rain,100,2013-01-09 22:40:00
4:53 PM,52.0,51.1,97,30.22,2.5,Variable,4.6,-,0.13,Rain,Rain,0,2013-01-09 22:53:00
5:15 PM,51.8,51.8,100,30.21,4.0,Variable,3.5,-,0.07,Rain,Rain,0,2013-01-09 23:15:00
5:53 PM,52.0,51.1,97,30.22,5.0,Variable,4.6,-,0.14,Rain,Light Rain,0,2013-01-09 23:53:00
6:53 PM,52.0,51.1,97,30.21,7.0,Variable,5.8,-,0.05,Rain,Light Rain,0,2013-01-10 00:53:00
7:53 PM,52.0,51.1,97,30.22,7.0,East,5.8,-,0.04,Rain,Light Rain,80,2013-01-10 01:53:00
8:53 PM,51.1,50.0,96,30.21,9.0,Variable,4.6,-,0.03,Rain,Light Rain,0,2013-01-10 02:53:00
9:53 PM,51.1,50.0,96,30.17,10.0,Variable,5.8,-,0.03,Rain,Light Rain,0,2013-01-10 03:53:00
10:53 PM,51.1,50.0,96,30.17,10.0,Variable,3.5,-,0.00,,Overcast,0,2013-01-10 04:53:00
11:53 PM,52.0,51.1,97,30.14,10.0,East,4.6,-,N/A,,Overcast,90,2013-01-10 05:53:00